Location: Lake of the Woods (North-East)
(49.6672°N, 94.8656°W)
Time: 05:49:55
(UTC-05:00)

Daily predictions for brighter satellites

Satellite Brightness Start Highest point End
(mag) Time Altitude Azimuth Time Altitude Azimuth Time Altitude Azimuth
ATLAS CENTAUR R/B 1.8 00:05:54 37° ESE 00:05:54 37° ESE 00:09:20 10° NE
Cosmos 2082 4.2 00:01:43 10° NNW 00:07:21 53° NE 00:10:40 24° ESE
Meteor 1-20 Rocket 4.2 00:05:11 30° S 00:08:06 72° E 00:13:47 10° NNE
Meteor 1-25 Rocket 4.2 00:05:45 29° S 00:08:52 80° E 00:14:43 10° NNE
ISS -3.8 00:08:22 10° WSW 00:11:38 80° NNW 00:14:54 10° ENE
DELTA 2 DEB (DPAF) 4.5 00:11:20 34° SSW 00:13:04 58° WSW 00:17:30 10° NNW
ARGOS Delta rocket 3.7 00:10:42 10° N 00:15:18 78° WNW 00:17:17 33° SSW
USA 129 4.2 00:14:57 10° NNE 00:15:52 20° NNE 00:15:52 20° NNE
Meteor 1-14 Rocket 4.5 00:13:52 23° SSW 00:17:41 73° WNW 00:23:31 10° N
Cosmos 1656 Rocket 4.0 00:13:10 12° SW 00:18:17 64° WNW 00:23:50 10° NNE
Okean 2 Rocket 3.0 00:22:31 42° S 00:23:59 89° ESE 00:28:28 10° N
Mayak 0.2 00:22:55 10° NE 00:26:21 24° E 00:26:48 23° ESE
Terra 3.8 00:24:15 13° SW 00:27:04 20° W 00:30:35 10° NW
CZ-2C R/B 2.9 00:25:43 38° SSE 00:27:45 89° ENE 00:32:43 10° NNW
Cosmos 1536 4.1 00:30:56 27° ESE 00:31:25 27° E 00:34:53 10° NNE
CENTAUR R/B 3.6 00:26:16 10° WSW 00:32:27 49° NW 00:39:33 10° NE
Cosmos 1812 4.1 00:29:29 10° NNW 00:32:55 30° W 00:34:04 25° WSW
CZ-4C R/B 4.4 00:32:15 30° SW 00:33:36 39° W 00:37:33 10° NNW
Cosmos 2227 Rocket 2.1 00:27:58 10° NNW 00:33:41 89° ENE 00:36:07 36° SSE
Gbstr 26 Del rocket 2.6 00:31:07 10° WNW 00:35:22 68° SSW 00:35:53 59° SSE
Cosmos 407 Rocket 4.3 00:31:00 10° NNW 00:36:08 46° ENE 00:38:54 25° ESE
Cosmos 2219 4.2 00:31:18 10° NW 00:36:29 36° WSW 00:38:45 26° SSW
Okean 1 3.9 00:34:47 10° NNW 00:38:40 48° W 00:39:36 39° SW
Meteor 1-11 Rocket 4.2 00:36:32 34° SSE 00:38:50 52° E 00:44:36 10° NNE
Cosmos 2315 Rocket 4.4 00:33:12 10° N 00:39:18 54° ENE 00:42:16 30° SE
Cosmos 2266 Rocket 4.1 00:37:32 34° SSE 00:40:11 61° E 00:46:13 10° NNE
CZ-2C R/B 2.5 00:35:00 10° NNE 00:40:11 71° ESE 00:42:04 40° S
Okean 1 Rocket 4.2 00:41:29 27° ESE 00:42:14 29° E 00:46:00 10° NNE
Cosmos 1655 Rocket 4.4 00:45:17 24° SSW 00:49:00 60° WNW 00:55:12 10° N
Cosmos 2292 4.2 00:46:10 10° N 00:49:11 78° NNE 00:49:11 78° NNE
Lacrosse 5 rocket 2.8 00:48:23 10° W 00:51:47 34° NNW 00:55:20 10° NE
Cosmos 405 Rocket 4.4 00:49:24 10° NW 00:52:17 21° W 00:53:04 20° WSW
Meteor 2-4 Rocket 3.6 00:47:55 10° N 00:53:19 79° ENE 00:55:18 40° SSE
Cosmos 1656 4.2 00:53:47 34° SE 00:55:02 39° ESE 01:00:08 10° NE
Cosmos 2369 4.0 00:55:16 39° SSE 00:57:02 53° ESE 01:02:34 10° NE
CZ-4C R/B 3.3 00:52:03 10° NW 00:58:47 59° NE 01:06:24 10° ESE
CZ-4C R/B 3.6 00:58:53 40° E 00:59:07 41° ENE 01:02:17 10° N
Cosmos 1633 3.3 00:59:40 39° WSW 01:00:19 44° WNW 01:03:47 10° N
Cosmos 2056 Rocket 3.9 01:02:34 38° SE 01:03:44 45° ESE 01:08:36 10° NE
APEX 4.1 00:59:26 10° NW 01:03:51 38° WSW 01:04:13 37° WSW
Cosmos 1980 Rocket 3.7 01:03:42 20° ESE 01:04:55 21° E 01:09:01 10° NE
CZ-4B R/B 2.8 01:04:25 29° E 01:05:07 32° ENE 01:08:17 10° N
ALOS 2 3.0 01:05:43 43° SW 01:06:41 52° W 01:10:59 10° NNW
Cosmos 1689 Rocket 3.6 01:11:06 30° E 01:11:25 31° ENE 01:14:19 10° N
Cosmos 1025 Rocket 3.3 01:08:35 10° N 01:12:55 59° ENE 01:13:59 45° SE
Cosmos 2151 Rocket 4.1 01:18:03 36° SW 01:19:27 51° WNW 01:23:49 10° N
Nadezhda 2 Rocket 4.4 01:24:45 38° S 01:27:16 81° E 01:33:24 10° N
H-2A R/B 4.0 01:24:47 10° NE 01:27:59 22° E 01:28:35 21° ESE
Cosmos 2297 Rocket 2.7 01:23:06 10° NW 01:28:29 46° WSW 01:30:03 36° SSW
Cosmos 1452 Rocket 4.5 01:28:49 29° SE 01:30:10 34° ESE 01:34:54 10° NE
SAR-Lupe-2 3.7 01:31:31 56° ESE 01:31:57 62° ENE 01:35:30 10° N
Cosmos 1697 Rocket 2.9 01:30:56 39° SSE 01:32:36 53° ESE 01:38:05 10° NE
GP-B 3.4 01:30:31 10° N 01:34:54 58° W 01:36:00 44° SW
Cosmos 1892 Rocket 4.1 01:34:00 10° N 01:38:24 52° ENE 01:39:53 36° SE
Spot 2 3.9 01:35:02 10° NNE 01:39:08 79° WNW 01:39:55 56° SW
Cosmos 1300 Rocket 4.0 01:39:21 41° SW 01:40:30 54° WNW 01:44:48 10° N
Cosmos 921 Rocket 3.0 01:41:32 56° SSE 01:42:16 69° ESE 01:46:30 10° NNE
ATLAS CENTAUR R/B 2.8 01:42:08 15° W 01:44:47 31° NW 01:48:13 10° NNE
SL-16 R/B 4.1 01:44:16 14° ESE 01:46:22 16° E 01:49:45 10° ENE
ISS -3.3 01:45:04 10° WNW 01:48:18 60° N 01:51:32 10° E
Okean 2 3.4 01:46:15 10° NNW 01:50:24 68° W 01:51:03 57° SSW
Cosmos 614 Rocket 4.0 01:45:25 10° NNW 01:50:30 73° ENE 01:52:46 33° SE
Cosmos 1371 Rocket 4.3 01:48:18 33° SW 01:50:35 62° WNW 01:55:47 10° NNE
Cosmos 2322 Rocket 4.0 01:53:12 16° SE 01:55:24 19° E 01:59:20 10° NE
Cosmos 2278 4.0 01:54:09 28° SW 01:57:08 62° WNW 02:02:49 10° NNE
Landsat 5 3.2 01:56:56 60° SW 01:57:19 65° WSW 02:01:10 10° NNW
Mayak -0.3 01:58:12 10° N 02:02:09 39° WNW 02:03:28 30° WSW
SL-16 R/B 4.3 01:58:20 10° ESE 02:03:28 28° ENE 02:08:36 10° N
Genesis I 3.1 02:00:11 10° NW 02:04:10 71° SW 02:04:39 62° S
Cosmos 676 Rocket 4.2 01:59:54 10° NNW 02:05:00 54° WSW 02:06:30 40° SSW
USA 234 4.1 02:00:37 10° ENE 02:06:26 33° SE 02:08:24 28° SSE
Cosmos 1536 4.2 02:06:41 26° W 02:07:48 30° WNW 02:11:25 10° N
Cosmos 1666 4.4 02:07:17 21° ESE 02:08:23 24° E 02:11:32 10° NE
Cosmos 2227 4.1 02:03:34 10° NNW 02:09:13 86° WSW 02:12:03 31° SSE
Cosmos 839 Rocket 4.3 02:08:23 33° S 02:10:49 51° ESE 02:16:48 10° NE
GRACE-1 4.4 02:14:16 56° NNE 02:14:16 56° NNE 02:16:32 10° N
GRACE-2 4.4 02:14:33 56° NNE 02:14:33 56° NNE 02:16:49 10° N
Cosmos 1544 Rocket 3.7 02:13:08 44° SSE 02:14:23 66° E 02:18:49 10° NNE
Resurs 1-4 Rocket 4.4 02:13:43 10° NE 02:16:21 14° E 02:18:58 10° ESE
Cosmos 2227 Rocket 3.9 02:13:32 10° WNW 02:16:56 17° W 02:17:54 16° WSW
Cosmos 1461 2.9 02:12:55 10° NW 02:17:15 89° NE 02:19:15 32° SE
Cosmos 1066 Rocket 4.0 02:12:40 10° NNW 02:18:08 83° W 02:20:22 36° S
Cosmos 1741 Rocket 4.0 02:14:27 10° NNW 02:19:44 84° ENE 02:22:27 29° SSE
Okean 1 Rocket 4.3 02:18:40 26° WSW 02:20:05 32° WNW 02:24:00 10° N
Cosmos 1745 Rocket 3.9 02:17:35 34° S 02:20:30 85° E 02:26:41 10° N
Cosmos 1515 4.5 02:19:54 10° NNW 02:23:25 35° W 02:23:42 35° WSW
Cosmos 1140 Rocket 3.7 02:19:04 10° NNW 02:24:06 53° WSW 02:25:42 38° SSW
BREEZE-M DEB (TANK) 3.1 02:15:57 10° WSW 02:25:48 61° SSE 02:29:01 10° E
ADEOS Rocket 4.2 02:22:04 10° NNE 02:27:49 34° E 02:31:34 18° SSE
USA 229 DEB 3.7 02:25:49 26° SW 02:30:02 83° NW 02:37:06 10° NE
USA 229 3.7 02:25:56 26° SW 02:30:08 83° NW 02:37:11 10° NE
Cosmos 1455 Rocket 3.0 02:29:38 45° S 02:30:57 84° E 02:35:21 10° NNE
SWAS 4.5 02:27:11 10° NNW 02:31:29 77° ENE 02:33:41 28° SE
Lacrosse 5 rocket 3.4 02:28:27 10° NW 02:31:45 27° N 02:35:12 10° ENE
Cosmos 1842 4.3 02:29:47 10° N 02:33:30 41° ENE 02:35:25 23° SE
NOSS 3-1 (A) 3.9 02:33:28 30° S 02:35:59 46° ESE 02:42:13 10° NE
CZ-2D R/B 4.1 02:32:26 10° NE 02:36:31 21° E 02:40:34 10° SE
Cosmos 2263 Rocket 2.6 02:30:57 10° NNW 02:36:38 64° ENE 02:42:17 10° SE
CZ-4B R/B 3.2 02:37:59 21° W 02:37:59 21° W 02:40:36 10° NW
Cosmos 405 2.9 02:39:42 58° S 02:40:18 82° E 02:43:51 10° NNE
SL-08 R/B 3.9 02:37:32 19° SE 02:40:39 53° ENE 02:45:10 10° N
Cosmos 1689 Rocket 4.3 02:43:53 17° W 02:43:53 17° W 02:45:41 10° NW
Cosmos 1743 2.7 02:43:11 47° S 02:44:14 82° E 02:48:07 10° NNE
Cosmos 44 3.9 02:41:26 10° NNW 02:45:42 50° NE 02:50:01 10° ESE
Cosmos 1238 Rocket 4.5 02:41:54 10° NNW 02:46:25 35° W 02:48:26 27° SW
PSLV R/B 3.9 02:42:21 10° N 02:47:06 72° WNW 02:49:05 35° SSW
CZ-4C R/B 3.2 02:40:43 10° NW 02:47:26 47° WSW 02:51:52 24° S
Cosmos 2360 Rocket 4.0 02:44:09 12° SE 02:47:44 20° E 02:51:47 10° NE
Cosmos 1980 Rocket 2.3 02:45:28 30° SW 02:48:20 73° WNW 02:53:59 10° NNE
PSLV R/B 3.9 02:51:14 35° S 02:52:57 81° WSW 02:57:12 10° NNW
Cosmos 1500 4.3 02:54:18 27° WSW 02:55:18 31° WNW 02:58:47 10° N
ATLAS 3B R/B 3.9 02:53:17 10° NW 02:59:50 42° NNE 03:06:04 10° ESE
Cosmos 1602 Rocket 3.6 02:56:09 10° NNW 03:00:37 70° W 03:02:27 34° S
Cosmos 1975 3.7 02:59:20 29° WSW 03:00:38 37° WNW 03:04:28 10° N
H-2A R/B 3.2 02:59:52 10° N 03:03:42 39° WNW 03:05:11 28° WSW
Cosmos 1437 Rocket 2.9 03:02:41 35° S 03:04:22 76° E 03:08:30 10° NNE
BREEZE M DEB (TANK) 1.7 03:07:51 47° SE 03:07:51 47° SE 03:10:19 10° E
USA 81 4.5 03:05:09 10° NNW 03:10:13 47° W 03:12:40 28° SW
Cosmos 1452 Rocket 4.4 03:09:08 21° WSW 03:12:13 41° WNW 03:17:15 10° NNE
Meteor 1-21 4.3 03:09:12 10° NNW 03:14:43 60° W 03:17:56 25° SSW
Cosmos 1697 Rocket 3.9 03:12:39 14° WSW 03:16:51 33° NW 03:21:56 10° NNE
NOSS 3-1 (C) 3.5 03:16:27 23° SW 03:20:23 80° NW 03:27:11 10° NE
Cosmos 1707 4.4 03:17:01 10° N 03:20:31 32° ENE 03:24:00 10° SE
Helios 1A Rocket 3.0 03:17:33 10° N 03:21:35 64° WNW 03:23:25 30° SW
ISS -3.9 03:21:35 10° WNW 03:24:49 61° SSW 03:28:03 10° SE
ATLAS CENTAUR R/B 4.2 03:24:00 10° NNW 03:24:52 11° NNW 03:25:44 10° N
UNK 3.8 03:22:02 14° SSE 03:26:00 80° ENE 03:30:38 10° NNW
Cosmos 44 Rocket 3.1 03:22:28 10° NW 03:27:11 73° SW 03:31:55 10° SSE
Cosmos 1607 4.4 03:21:10 10° NW 03:27:36 68° NE 03:34:02 10° SE
SL-16 R/B 2.2 03:26:08 24° SSW 03:29:40 89° E 03:35:23 10° NNE
Cosmos 1709 Rocket 4.1 03:27:28 23° SSW 03:31:18 61° WNW 03:37:23 10° N
Meteor 1-4 Rocket 3.3 03:30:12 20° SSE 03:32:19 44° E 03:35:45 10° NNE
IRS-1D 4.0 03:29:16 10° NNE 03:34:08 53° E 03:38:04 15° S
Meteor 2-9 Rocket 4.3 03:30:58 22° SSW 03:34:55 81° WNW 03:40:50 10° N
Spot 4 Rocket 4.5 03:30:06 10° NNE 03:35:13 58° E 03:39:19 16° S
Cosmos 1110 Rocket 4.0 03:35:10 22° SSW 03:38:31 84° ESE 03:43:44 10° NNE
Cosmos 1606 Rocket 4.0 03:35:27 17° S 03:38:41 61° E 03:43:06 10° NNE
Cosmos 2322 Rocket 2.2 03:35:01 22° SW 03:38:46 79° WNW 03:44:32 10° NNE
Cosmos 1666 3.9 03:42:14 21° WSW 03:43:56 30° WNW 03:47:24 10° N
SL-16 R/B 2.6 03:40:35 11° S 03:46:37 69° WSW 03:52:53 10° NNW
USA 234 3.3 03:43:23 10° ENE 03:49:59 89° SSE 03:55:42 14° WSW
Cosmos 1340 Rocket 4.2 03:50:19 10° N 03:54:05 39° ENE 03:57:48 10° SE
ADEOS II 4.5 03:52:21 10° NE 03:56:01 19° E 03:59:39 10° SE
Resurs 1-4 Rocket 2.1 03:51:41 10° NNE 03:57:00 85° ESE 04:01:28 15° SSW
IRS-1C 4.2 03:52:03 10° N 03:57:23 70° WNW 04:01:31 17° SSW
Cosmos 1825 Rocket 3.8 03:53:07 10° NNW 03:57:25 51° W 04:00:35 17° SSW
Cosmos 1758 Rocket 3.5 03:54:21 10° NNW 03:58:41 65° W 04:02:24 13° S
ARIANE 5 R/B 2.6 03:57:13 10° NNE 04:02:21 83° ESE 04:06:58 13° SSW
Cosmos 2184 Rocket 4.0 04:00:07 14° SSW 04:05:32 78° W 04:11:44 10° N
BREEZE-M DEB (TANK) 4.2 04:05:01 11° S 04:06:42 15° SE 04:09:14 10° E
BREEZE-M DEB (TANK) 3.1 04:03:34 10° W 04:06:55 84° S 04:17:59 10° ESE
Lacrosse 5 rocket 2.0 04:07:42 10° NW 04:11:32 55° NNE 04:15:37 10° ESE
NPP 4.4 04:08:31 10° N 04:13:32 40° WNW 04:17:47 14° SW
Cosmos 1184 Rocket 2.8 04:10:12 10° N 04:13:33 86° ENE 04:16:52 10° SSE
UNKNOWN OBJECT B 3.2 04:09:47 10° NNE 04:13:34 58° E 04:17:22 10° S
ADEOS Rocket 3.5 04:07:24 10° N 04:13:36 48° WNW 04:18:31 14° SW
Cosmos 1271 Rocket 3.6 04:11:49 10° S 04:15:42 51° E 04:19:36 10° NNE
CZ-2D R/B 2.3 04:11:38 10° N 04:17:07 70° WNW 04:22:07 12° SSW
Cosmos 2228 3.0 04:13:49 11° S 04:17:56 83° E 04:22:15 10° NNE
Cosmos 2263 Rocket 3.3 04:15:36 10° NW 04:20:06 25° WSW 04:24:05 12° SSW
Cosmos 1331 Rocket 4.4 04:16:13 15° SW 04:20:23 52° WNW 04:25:29 10° NNE
ATLAS 2AS CENTAUR R/B 3.5 04:14:19 11° SSW 04:21:42 59° ESE 04:29:40 10° NE
Cosmos 389 Rocket 3.8 04:22:31 10° SSE 04:25:50 38° E 04:29:13 10° NNE
Cosmos 44 4.0 04:23:02 10° WNW 04:26:39 26° WSW 04:30:20 10° S
NOSS 3-1 (A) 4.2 04:20:58 10° WSW 04:26:52 50° NW 04:33:36 10° NE
Nadezhda 3 Rocket 4.0 04:24:49 10° NNW 04:31:02 72° W 04:37:16 10° S
Cosmos 2360 Rocket 2.3 04:25:56 12° SW 04:31:07 75° WNW 04:36:48 10° NNE
Cosmos 1980 Rocket 4.2 04:29:24 10° W 04:33:21 19° NW 04:37:19 10° N
NOSS 2-3 (E) 4.1 04:29:15 12° SSW 04:33:43 77° SE 04:39:31 10° NE
COSMOS 2428 3.2 04:28:14 10° S 04:33:51 59° ESE 04:39:29 10° NE
Cosmos 2219 Rocket 3.4 04:30:24 10° S 04:35:36 39° ESE 04:40:50 10° NE
Cosmos 2058 Rocket 3.3 04:33:27 10° SSW 04:37:52 57° WNW 04:42:21 10° N
Aureole 2 Rocket 4.2 04:34:56 10° S 04:38:45 36° ESE 04:42:28 10° NE
Cosmos 2237 Rocket 4.2 04:34:24 10° SSE 04:38:48 24° ESE 04:43:12 10° NE
ATLAS CENTAUR R/B 2.7 04:31:29 10° WNW 04:39:50 69° NNE 04:43:01 10° ESE
Cosmos 1844 Rocket 2.7 04:35:34 10° NNW 04:41:12 66° WSW 04:46:49 10° SSE
MOS 1 Rocket 3.5 04:38:12 10° N 04:42:44 54° WNW 04:47:01 10° SSW
Cosmos 972 Rocket 3.9 04:40:06 10° SSW 04:44:58 86° ESE 04:50:04 10° NNE
MOZ.5/SAFIR/RUBIN 5/SL-8 4.3 04:41:13 10° SSW 04:45:35 40° W 04:49:59 10° NNW
Cosmos 1354 Rocket 4.3 04:42:53 10° NNW 04:47:58 48° WSW 04:53:03 10° S
Okean O Rocket 3.3 04:44:57 10° NNE 04:48:59 32° E 04:53:00 10° SSE
Meteor 2-5 Rocket 4.1 04:43:40 10° NNW 04:49:00 45° W 04:54:24 10° SSW
Cosmos 1812 Rocket 4.0 04:45:58 10° S 04:50:16 64° E 04:54:35 10° NNE
ATLAS 3B R/B 2.6 04:44:11 10° NW 04:50:55 64° SW 04:57:19 10° SSE
Cosmos 1544 3.6 04:49:19 10° S 04:52:58 61° E 04:56:40 10° NNE
Cosmos 2333 Rocket 3.3 04:47:38 10° S 04:52:58 42° ESE 04:58:18 10° NE
Cosmos 2322 3.9 04:49:07 10° SW 04:54:42 62° WNW 05:00:21 10° NNE
SeaSat 1 2.4 04:50:22 10° SSE 04:55:19 82° WSW 05:00:18 10° NNW
Cosmos 1707 4.0 04:53:13 10° NW 04:56:19 23° W 04:59:23 10° SW
SL-8 R/B 4.2 04:52:37 10° SW 04:57:16 48° SSE 05:01:55 10° E
Meteor 1-24 Rocket 3.7 04:52:07 10° NNW 04:57:23 59° W 05:02:46 10° S
Cosmos 2154 Rocket 4.2 04:53:36 10° SSW 04:59:47 57° WNW 05:05:59 10° N
BREEZE-M DEB (TANK) 4.0 04:50:29 10° WSW 05:00:53 45° S 05:03:41 10° E
